Other Surface Observations
Issued by NWS

Home | Current Version | Previous Version | Text Only | Print | Product List | Glossary On
Versions: 1 2 3 4 5 6 7 8 9 10 11 12 13 14 15 16 17 18 19 20 21 22 23 24 25 26 27 28 29 30 31 32 33 34 35 36 37 38 39 40 41 42 43 44 45 46 47 48 49 50
000
SXUS52 KTAE 291719
OSOTAE
OSOTAE
North Florida/South Alabama/Southwest Georgia Weather Roundup
National Weather Service Tallahassee Florida
100 PM EDT WED JUL 29 2015

Note: "fair" indicates few or no clouds below 12,000 feet with no
significant weather and/or obstructions to visibility.

!FLZ017-115-028-034-025-291800
...North Florida...

CITY           SKY/WX    TMP DP  RH WIND       PRES   REMARKS
TALLAHASSEE    PTSUNNY   94  76  55 N9        29.97F HX 106
APALACHICOLA   SUNNY     97  76  50 N9        29.97F HX 110
PERRY          MOSUNNY   94  76  57 W5        29.97F HX 107
CROSS CITY       N/A     92  79  65 CALM      29.96F HX 108
JACKSONVILLE   PTSUNNY   91  74  57 N8        29.96  HX 100
$$

!FLZ112-006-005-002-011-291800
...Florida Panhandle...

CITY           SKY/WX    TMP DP  RH WIND       PRES   REMARKS
MARIANNA       SUNNY     95  74  50 N8        29.98F HX 105
BONIFAY        FAIR      95  75  52 N6        29.99F HX 107
PANAMA CITY NW FAIR      95  75  52 NW10      29.98S HX 107
TYNDALL AFB    SUNNY     95  75  52 N8        29.98S HX 107
TYND DRONE APT FAIR      95  77  56 NW6       29.97F HX 109
DE FUNIAK SPR  FAIR      93  76  57 N8        30.00S HX 104
EGLIN AFB      PTSUNNY   96  75  50 N9        29.98F HX 107
DESTIN         SUNNY     96  77  54 VRB6      29.98F HX 111
HURLBURT       DRIZZLE   97  73  46 VRB6      29.96F HX 107
CRESTVIEW      SUNNY     96  77  54 MISG      30.00F HX 111
PENSACOLA      SUNNY     94  75  54 NW10      29.99F HX 105
$$

!ALZ063-066-291800
...South Alabama...

CITY           SKY/WX    TMP DP  RH WIND       PRES   REMARKS
DOTHAN         MOSUNNY   94  74  52 NW9       30.03S HX 104
OZARK CAIRNS   SUNNY     95  76  53 VRB3      29.99F HX 107
FT RUCKER HELI SUNNY     97  73  45 N8        29.98F HX 107
RUCKER HELI 3  FAIR      93  74  53 NW7       30.01F HX 103
RUCKER HELI 2  FAIR      95  74  50 N10       29.98F HX 105
FLORALA APT    MOSUNNY   92  73  53 CALM      30.01F THUNDER HX 100
ANDALUSIA      SUNNY    101  73  40 NE9       29.99F THUNDER HX 112
TROY           MOSUNNY   96  72  45 N14       30.00F HX 104
EUFALA         FAIR      95  78  58 VRB3      29.98F HX 111
MOBILE         PTSUNNY   93  75  55 NW5       30.02F HX 104
$$

!GAZ120>161-291800
...Southwest and South Central Georgia...

CITY           SKY/WX    TMP DP  RH WIND       PRES   REMARKS
THOMASVILLE    FAIR      91  77  62 NE5       29.99F HX 105
BAINBRIDGE     MOSUNNY   95  79  59 W5        29.98F HX 112
MOODY AFB      PTSUNNY   92  76  59 NW6       29.97F HX 103
VALDOSTA       MOSUNNY   93  79  63 CALM      29.97F HX 110
MOULTRIE       MOSUNNY   93  75  55 CALM      29.98F HX 104
BLAKELY        MOSUNNY   95  77  55 NE3       29.99F HX 109
ALBANY         SUNNY     97  72  44 MISG      29.99F HX 105
TIFTON         PTSUNNY   91  72  54 N3        29.98F HX  98
FITZGERALD     FAIR      90  78  68 SE5       30.02F HX 104
CORDELE        FAIR      96  76  52 W3        29.99F HX 108
AMERICUS       FAIR      91  72  52 N5        30.00F HX  98
HOMERVILLE     PTSUNNY   95  79  59 CALM      29.98F HX 112
$$

!GMZ750-755-770-775-291800
...Coastal and Buoy Obs...

STATION/POSITION TIME  TEMP    WIND        PRES    VSBY  WAVE
                       AIR SEA DIR/SP/G                  HT/PER
                 (UTC) (F)     (DEG/KT/KT) (MB)    (MI)  (FT/S)
KEATON BEACH     1700   87     270/  7/  8 1014.7F
CEDAR KEY        1700   83      80/  6/  6 1015.4F
C TOWER          1700   85     290/  9/  9 1015.0F
APALACHICOLA BUO 1650   87 86  310/  8/ 10 1015.5F         2/ 4
PANAMA CITY BUOY 1650   87 87  340/ 12/ 14 1016.2F         2/ 4
MOBILE BUOY      1650   86 89  330/ 10/ 10 1016.8F         2/ 3
ORANGE BCH AL BU 1650   85 85  290/ 10/ 12 1015.3F         1/ 4
$$



USA.gov is the U.S. government's official web portal to all federal, state and local government web resources and services.